Regional Weather Roundup
Issued by NWS Bismarck, ND

Home | Current Version | Previous Version | Text Only | Print | Product List | Glossary On
Versions: 1 2 3 4 5 6 7 8 9 10 11 12 13 14 15 16 17 18 19 20 21 22 23 24 25 26 27 28 29 30 31 32 33 34 35 36 37 38 39 40 41 42 43 44 45 46 47 48 49 50
610
ASUS43 KBIS 190210
RWRBIS

NWR BROADCAST TEXT
NATIONAL WEATHER SERVICE BISMARCK ND
900 PM CDT MON SEP 18 2017

NOTE: "FAIR" INDICATES FEW OR NO CLOUDS BELOW 12,000 FEET WITH NO
SIGNIFICANT WEATHER AND/OR OBSTRUCTIONS TO VISIBILITY.


CITY           SKY/WX    TMP DP  RH WIND       PRES   REMARKS
WILLISTON      CLOUDY    66  45  46 SE13      29.67R
MINOT          CLOUDY    57  48  72 E8        29.75S
MINOT AFB      CLEAR     56  49  78 SE10      29.74R
BISMARCK       CLEAR     55  50  83 E6        29.78R
DICKINSON      CLEAR     58  44  60 SE10      29.71R
GARRISON         N/A     57  50  77 E6        29.76R
HETTINGER ARPT CLEAR     62  40  44 E10       29.74F
JAMESTOWN      CLOUDY    54  50  86 CALM      29.79S
CARRINGTON     FAIR      57  54  88 S5        29.82S
HAZEN          FAIR      61  46  59 SE8       29.76S
LINTON         FAIR      55  46  71 E6        29.80S
MANDAN         FAIR      59  48  67 SE8       29.78R
RUGBY          FAIR      54  52  94 E8        29.78S
STANLEY        FAIR      57  48  72 SE9       29.76R
TIOGA          FAIR      59  46  63 SE10G17   29.72F
WATFORD CITY   FAIR      59  46  63 SE12      29.68S
$$

CITY           SKY/WX    TMP DP  RH WIND       PRES   REMARKS
GRAND FORKS    PTCLDY    59  57  93 SE12      29.83R
GRAND FORKS AF CLEAR     59  55  88 SE12      29.84S
DEVILS LAKE    PTCLDY    57  52  83 E8        29.81S
FARGO          CLOUDY    63  58  83 SE13G22   29.83S
CANDO          FAIR      54  54 100 E7        29.83R
CAVALIER       FAIR      57  54  88 CALM      29.82F
GRAFTON        MOCLDY    61  57  88 SE12G17   29.85S
GWINNER        CLEAR     63  61  94 SE8       29.81R
LANGDON        FAIR      55  55 100 E7        29.83F
ROLLA          FAIR      54  50  87 E7        29.82S
WALHALLA       FAIR     N/A N/A N/A E5        29.82F
$$

CITY           SKY/WX    TMP DP  RH WIND       PRES   REMARKS
ABERDEEN       CLEAR     60  54  80 SE5       29.79S
MOBRIDGE       CLEAR     65  46  50 E14       29.74F
BUFFALO          N/A     65  40  39 E14       29.64F
RAPID CITY     CLEAR     64  39  39 E10       29.73S
GLASGOW        CLOUDY    64  46  52 E9        29.58F
SIDNEY         PTCLDY    64  45  49 CALM      29.64F
WOLF POINT     CLOUDY    70  41  34 CALM      29.60F
GLENDIVE       PTCLDY    65  42  43 SE8       29.64F
MILES CITY     PTCLDY    69  34  27 E7        29.58F
BAKER          CLOUDY    58  42  55 SE13      29.68F
$$

CITY           SKY/WX    TMP DP  RH WIND       PRES   REMARKS
BILLINGS       CLOUDY    66  38  35 NW17      29.62S
GREAT FALLS    LGT RAIN  48  40  73 W14       29.67R
REGINA         MOCLDY    66  37  34 SE16G22   29.61S
ESTEVAN        PTCLDY    61  48  63 SE13G18   29.70S
$$





USA.gov is the U.S. government's official web portal to all federal, state and local government web resources and services.